Voltar ao catálogo

STARLINK-32510

AtivoComunicaçõesVLEO
NORAD 62040·PAYLOAD·🇺🇸 United States

Lançado Nov 21, 2024 de Cape Canaveral Space Force Station

Loading…

Próximas Passagens (próximas 24 horas)

TLE

AtualizadoSource: CelesTrak SupGP

Época: Sep 14, 2026, 22:04 UTC

1 62040C 24216J   26257.91993056  .00023266  00000+0  84275-3 0  2575
2 62040  42.9997 275.1809 0001441 265.3352 281.7936 15.27564198    17

Acompanhe STARLINK-32510 em tempo real com AllMySat

Download on the App Store